Wetterdaten: aktuell Montag, 15.10.2018 11:08
Datum Zeit Temperatur Bodentemp. Luftfeuchte Luftdruck Regen Wind Richtung Richtung Sonnenschein
15.10.2018 11:08 21,3 C 10,7 C 34 % 1013 hPa 0,0 l/m 0,0 km/h (0 Bft) SO 135 4 min
15.10.2018 11:04 21,0 C 11,0 C 34 % 1013 hPa 0,0 l/m 0,0 km/h (0 Bft) O-SO22.5 105 5 min
15.10.2018 10:59 21,0 C 11,1 C 33 % 1013 hPa 0,0 l/m 0,0 km/h (0 Bft) O 100 5 min
15.10.2018 10:54 20,7 C 11,1 C 35 % 1013 hPa 0,0 l/m 0,0 km/h (0 Bft) O 95 6 min
15.10.2018 10:48 20,5 C 10,6 C 37 % 1013 hPa 0,0 l/m 0,0 km/h (0 Bft) O-SO 105 4 min
15.10.2018 10:44 20,3 C 10,2 C 39 % 1013 hPa 0,0 l/m 0,0 km/h (0 Bft) O 100 5 min
15.10.2018 10:39 19,9 C 10,3 C 40 % 1013 hPa 0,0 l/m 0,0 km/h (0 Bft) O-SO 105 6 min
15.10.2018 10:33 19,6 C 10,3 C 41 % 1013 hPa 0,0 l/m 0,0 km/h (0 Bft) O-SO 105 4 min
15.10.2018 10:29 19,5 C 9,8 C 41 % 1013 hPa 0,0 l/m 0,0 km/h (0 Bft) O-SO 105 5 min
15.10.2018 10:24 19,1 C 9,6 C 42 % 1013 hPa 0,0 l/m 0,0 km/h (0 Bft) O-SO 110 5 min
15.10.2018 10:19 18,6 C 9,3 C 45 % 1013 hPa 0,0 l/m 0,0 km/h (0 Bft) O-SO22.5 110 6 min
15.10.2018 10:13 18,3 C 9,0 C 47 % 1013 hPa 0,0 l/m 3,5 km/h (1 Bft) O22.5 95 4 min
15.10.2018 10:09 18,1 C 9,1 C 47 % 1013 hPa 0,0 l/m 0,0 km/h (0 Bft) O 100 5 min
15.10.2018 10:04 17,7 C 8,8 C 50 % 1013 hPa 0,0 l/m 0,0 km/h (0 Bft) O 100 5 min
15.10.2018 09:59 17,2 C 8,0 C 53 % 1013 hPa 0,0 l/m 0,0 km/h (0 Bft) O 100 6 min
15.10.2018 09:53 16,7 C 7,8 C 56 % 1013 hPa 0,0 l/m 0,0 km/h (0 Bft) O 80 4 min
15.10.2018 09:49 16,3 C 7,6 C 58 % 1013 hPa 0,0 l/m 0,0 km/h (0 Bft) O 90 5 min
15.10.2018 09:44 15,8 C 7,2 C 65 % 1013 hPa 0,0 l/m 0,0 km/h (0 Bft) O 95 6 min
15.10.2018 09:38 15,5 C 7,1 C 69 % 1013 hPa 0,0 l/m 0,0 km/h (0 Bft) O 100 4 min
15.10.2018 09:34 15,3 C 6,9 C 73 % 1013 hPa 0,0 l/m 0,0 km/h (0 Bft) O 90 5 min
15.10.2018 09:29 14,7 C 6,5 C 80 % 1013 hPa 0,0 l/m 0,0 km/h (0 Bft) O 90 5 min
15.10.2018 09:24 14,4 C 6,5 C 86 % 1013 hPa 0,0 l/m 0,0 km/h (0 Bft) O 85 6 min
15.10.2018 09:18 14,1 C 6,2 C 92 % 1013 hPa 0,0 l/m 0,0 km/h (0 Bft) O 80 4 min
15.10.2018 09:14 13,7 C 6,0 C 95 % 1013 hPa 0,0 l/m 0,0 km/h (0 Bft) O 80 5 min
15.10.2018 09:09 13,2 C 5,9 C 95 % 1013 hPa 0,0 l/m 0,0 km/h (0 Bft) O 85 0 min
15.10.2018 09:04 13,1 C 5,8 C 95 % 1013 hPa 0,0 l/m 0,0 km/h (0 Bft) O-NO 75 0 min
15.10.2018 08:58 12,6 C 5,8 C 95 % 1012 hPa 0,0 l/m 0,0 km/h (0 Bft) O 80 0 min
15.10.2018 08:54 12,3 C 5,6 C 95 % 1012 hPa 0,0 l/m 0,0 km/h (0 Bft) O 80 0 min
15.10.2018 08:49 12,1 C 5,3 C 96 % 1012 hPa 0,0 l/m 0,0 km/h (0 Bft) O 80 0 min
15.10.2018 08:43 11,7 C 5,2 C 95 % 1012 hPa 0,0 l/m 0,0 km/h (0 Bft) O 80 0 min
15.10.2018 08:39 11,6 C 5,2 C 96 % 1012 hPa 0,0 l/m 0,0 km/h (0 Bft) O 80 0 min
15.10.2018 08:34 11,6 C 5,1 C 96 % 1012 hPa 0,0 l/m 0,0 km/h (0 Bft) O 80 0 min
15.10.2018 08:28 11,2 C 5,1 C 95 % 1012 hPa 0,0 l/m 2,8 km/h (1 Bft) O 80 0 min
15.10.2018 08:24 11,2 C 4,9 C 96 % 1012 hPa 0,0 l/m 3,0 km/h (1 Bft) O 85 0 min
15.10.2018 08:19 11,0 C 4,9 C 96 % 1012 hPa 0,0 l/m 2,8 km/h (1 Bft) O 85 0 min
15.10.2018 08:14 11,0 C 4,7 C 96 % 1012 hPa 0,0 l/m 0,0 km/h (0 Bft) O-NO 75 0 min
15.10.2018 08:08 11,1 C 4,7 C 96 % 1012 hPa 0,0 l/m 0,0 km/h (0 Bft) O-NO 75 0 min
15.10.2018 08:04 10,9 C 4,5 C 96 % 1012 hPa 0,0 l/m 0,0 km/h (0 Bft) O 80 0 min
15.10.2018 07:59 10,9 C 4,3 C 96 % 1012 hPa 0,0 l/m 0,0 km/h (0 Bft) O 80 0 min
15.10.2018 07:53 10,9 C 4,4 C 96 % 1012 hPa 0,0 l/m 0,0 km/h (0 Bft) O 80 0 min
15.10.2018 07:49 10,6 C 4,3 C 95 % 1012 hPa 0,0 l/m 0,0 km/h (0 Bft) O 80 0 min
15.10.2018 07:44 10,6 C 4,1 C 95 % 1012 hPa 0,0 l/m 0,0 km/h (0 Bft) O 80 0 min
15.10.2018 07:39 10,7 C 4,3 C 95 % 1012 hPa 0,0 l/m 0,0 km/h (0 Bft) O 85 0 min
15.10.2018 07:33 10,8 C 4,2 C 95 % 1012 hPa 0,0 l/m 0,0 km/h (0 Bft) O 85 0 min
15.10.2018 07:29 10,9 C 4,4 C 95 % 1012 hPa 0,0 l/m 0,0 km/h (0 Bft) O 85 0 min
15.10.2018 07:24 10,9 C 4,2 C 95 % 1012 hPa 0,0 l/m 0,0 km/h (0 Bft) O 85 0 min
15.10.2018 07:18 11,4 C 4,3 C 96 % 1012 hPa 0,0 l/m 0,0 km/h (0 Bft) O 85 0 min
15.10.2018 07:14 11,7 C 4,2 C 97 % 1012 hPa 0,0 l/m 0,0 km/h (0 Bft) O 85 0 min
15.10.2018 07:09 11,6 C 4,0 C 97 % 1012 hPa 0,0 l/m 0,0 km/h (0 Bft) O 85 0 min
_ Min-Zeit 05:33 05:24 12:14 13:39 - 13:58 - - -
Minimum _ 10,1 C 3,9 C 5 % 1010 hPa - 0,0 km/h (0 Bft) - - -
_ Max-Zeit 13:44 15:34 06:19 09:04 12:04 15:54 - - 12:14
Maximum _ 26,3 C 17,3 C 97 % 1013 hPa 0,0 l/m 23,6 km/h
SO (4 Bft)
- - 6 min
Durchschnitt _ 17,8 C 9,6 C 48 % 1011 hPa #0,0 l/m 5,6 km/h (2 Bft) SO - #1:59 h